Home > Time Zones > World Clock > Weather > Italy > Monza > Past weeks

Flag Weather past 2 weeks in Monza, Italy

Now
45 °F

Mostly cloudy.


Feels Like: 41 °F
Forecast: 46 / 52 °F
Wind: 6 mph from East

Location: Milan / Linate

Current Time: Nov 27, 2014 at 2:32:52 PM

Latest Report: Nov 27, 2014 at 1:50 PM


Visibility: 4 mi

Pressure: 29.95 "Hg

Humidity: 100%

Dew point: 45 °F

Location of MonzaLocation

Historic Weather in Monza — Graph

°F

Monza temperature yesterday

Maximum temperature yesterday: 48 °F (at 12:20 AM)
Minimum temperature yesterday: 45 °F (at 8:20 AM)
Average temperature yesterday: 46 °F

Past Weeks' High & Low Weather Summary

 TemperatureHumidityPressure
High61 °F (Nov 13, 12:20 PM)100% (Nov 12, 1:20 PM)30.36 "Hg (Nov 12, 1:20 PM)
Low37 °F (Nov 20, 3:50 AM)63% (Nov 18, 1:50 PM)29.50 "Hg (Nov 15, 6:50 PM)
Average50 °F95%29.99 "Hg
* Reported Nov 12 1:20 PM — Nov 27 1:20 PM, Monza, Weather by CustomWeather, © 2014

Note: Actual official high and low records may vary slightly from our data, if they occured in-between our weather recording intervals... More about our weather records

Advertising

Monza weather history for previous 24 hours

 ConditionsComfort  
Time TempWeatherWind HumidityBarometerVisibility
1:20 PM
Nov 27
46 °FFog.6 mph93%29.98 "Hg3 mi
12:50 PM46 °FDrizzle. Fog.5 mph93%29.98 "Hg3 mi
12:20 PM46 °FDrizzle. Fog.5 mph93%29.98 "Hg2 mi
11:50 AM45 °FDrizzle. Fog.5 mph100%29.98 "Hg2 mi
11:20 AM45 °FDrizzle. Fog.3 mph100%30.01 "Hg2 mi
10:50 AM45 °FDrizzle. Fog.5 mph93%30.01 "Hg3 mi
10:20 AM45 °FFog.6 mph93%30.01 "Hg2 mi
9:50 AM45 °FDrizzle. Fog.5 mph100%30.01 "Hg2 mi
9:20 AM45 °FLight rain. Fog.5 mph100%29.98 "Hg2 mi
8:50 AM45 °FLight rain. Fog.5 mph100%29.98 "Hg1 mi
8:20 AM45 °FLight rain. Fog.6 mph100%29.98 "Hg1 mi
7:50 AM45 °FLight rain. Fog.3 mph100%29.98 "Hg1 mi
7:20 AM45 °FDrizzle. Fog.5 mph100%29.98 "Hg2 mi
6:50 AM45 °FDrizzle. Fog.3 mph100%29.98 "Hg3 mi
6:20 AM45 °FLight rain. Fog.5 mph100%29.98 "Hg3 mi
5:50 AM45 °FFog.6 mph100%29.98 "Hg3 mi
5:20 AM45 °FFog.5 mph100%29.98 "Hg3 mi
4:50 AM45 °FFog.3 mph100%29.98 "Hg3 mi
4:20 AM45 °FFog.3 mph100%30.01 "Hg3 mi
3:50 AM45 °FFog.5 mph100%30.01 "Hg3 mi
3:20 AM45 °FFog.5 mph100%30.01 "Hg3 mi
2:50 AM45 °FFog.6 mph100%30.01 "Hg3 mi
2:20 AM45 °FFog.3 mph100%30.01 "Hg3 mi
1:50 AM45 °FFog.5 mph100%30.04 "Hg3 mi
1:20 AM45 °FFog.5 mph100%30.04 "Hg3 mi
12:20 AM45 °FFog.3 mph100%30.04 "Hg3 mi
11:50 PM
Nov 26
45 °FDrizzle. Fog.6 mph100%30.04 "Hg2 mi
11:20 PM45 °FDrizzle. Fog.6 mph100%30.04 "Hg2 mi
10:50 PM45 °FDrizzle. Fog.5 mph100%30.07 "Hg2 mi
10:20 PM45 °FDrizzle. Fog.3 mph100%30.07 "Hg2 mi
9:50 PM45 °FDrizzle. Fog.3 mph100%30.07 "Hg2 mi
9:20 PM45 °FOvercast.5 mph100%30.07 "Hg5 mi
8:50 PM45 °FOvercast.6 mph100%30.07 "Hg5 mi
8:20 PM46 °FOvercast.5 mph87%30.07 "Hg5 mi
7:50 PM46 °FOvercast.2 mph93%30.07 "Hg5 mi
7:20 PM46 °FOvercast.5 mph93%30.07 "Hg4 mi
6:50 PM46 °FFog.3 mph93%30.07 "Hg3 mi
6:20 PM46 °FFog.3 mph100%30.07 "Hg3 mi
5:50 PM46 °FFog.3 mph100%30.07 "Hg2 mi
5:20 PM46 °FFog.2 mph100%30.04 "Hg2 mi
4:50 PM46 °FDrizzle. Fog.3 mph100%30.04 "Hg2 mi
4:20 PM46 °FDrizzle. Fog.5 mph100%30.04 "Hg2 mi
3:50 PM46 °FDrizzle. Fog.5 mph100%30.04 "Hg3 mi
3:20 PM46 °FFog.6 mph100%30.04 "Hg3 mi
2:50 PM46 °FFog.8 mph100%30.04 "Hg3 mi
2:20 PM46 °FFog.7 mph100%30.07 "Hg2 mi
Weather by CustomWeather, © 2014

See weather overviewHow to use our weather pages